Regional Weather Roundup
Issued by NWS

Home | Current Version | Previous Version | Graphics & Text | Print | Product List | Glossary Off
Versions: 1 2 3 4 5 6 7 8 9 10 11 12 13 14 15 16 17 18 19 20 21 22 23 24 25 26 27 28 29 30 31 32 33 34 35 36 37 38 39 40 41 42 43 44 45 46 47 48 49 50

000
ASUS43 KMPX 300010
RWRMN
WEATHER ROUNDUP FOR MINNESOTA
NATIONAL WEATHER SERVICE TWIN CITIES/CHANHASSEN MN
700 PM CDT FRI APR 29 2016


NOTE: "FAIR" INDICATES FEW OR NO CLOUDS BELOW 12,000 FEET WITH NO
SIGNIFICANT WEATHER AND/OR OBSTRUCTIONS TO VISIBILITY. N/A MEANS
CURRENT SKY AND/OR WEATHER CONDITIONS ARE NOT AVAILABLE.

MNZ060>063-068>070-300100-
   Twin Cities Metro

CITY           SKY/WX    TMP DP  RH WIND       PRES   REMARKS
TWIN CITIES    MOSUNNY   59  33  37 NE8       30.10S
6HR MIN TEMP:  53; 6HR MAX TEMP:  60;

ST PAUL        SUNNY     59  36  42 E7        30.11S
CRYSTAL        SUNNY     60  33  36 NE7       30.10S
BLAINE         MOSUNNY   61  34  36 E6        30.11S
EDEN PRAIRIE   SUNNY     59  33  37 E6        30.09F
6HR MIN TEMP:  54; 6HR MAX TEMP:  60;

SOUTH ST PAUL  MOSUNNY   58  37  44 SE6       30.10S
LAKE ELMO      FAIR      59  36  41 CALM      30.11S
$$
MNZ001>005-007-008-013>017-022>024-027-028-300100-
   Northwest Minnesota

CITY           SKY/WX    TMP DP  RH WIND       PRES   REMARKS
BEMIDJI        CLOUDY    58  32  38 SE6       30.14R
HALLOCK        SUNNY     63  23  22 E6        30.18R
ROSEAU         SUNNY     57  36  44 E13       30.20S
WARROAD        SUNNY     54  34  47 E7        30.21R
THIEF RVR FALL SUNNY     61  30  31 NE15      30.17R
CROOKSTON      SUNNY     63  30  29 E8        30.16R
FOSSTON        SUNNY     61  32  33 NE10G16   30.16R
DETROIT LAKES  SUNNY     61  32  33 E8        30.12S
MOORHEAD       MOSUNNY   63  30  29 SE6       30.10S
PARK RAPIDS    SUNNY     61  29  29 NE7       30.12R
MAHNOMEN       FAIR      60  33  35 NE12      30.12S
$$
MNZ006-009>011-018-025>026-300100-
   North Central Minnesota

CITY           SKY/WX    TMP DP  RH WIND       PRES   REMARKS
BAUDETTE       SUNNY     56  31  38 N13       30.18R
FLAG ISLAND    SUNNY     54  30  40 N13       30.19R
INTL FALLS     SUNNY     55  30  38 E12       30.19R
6HR MIN TEMP:  52; 6HR MAX TEMP:  57;

WASKISH        SUNNY     57  30  35 NE9       30.17R
BIG FORK       SUNNY     57  30  35 NE7       30.16R
LONGVILLE      SUNNY     61  28  29 NE3       30.13S
GRAND RAPIDS   SUNNY     57  28  33 NE6       30.17R
CRANE LAKE     SUNNY     52  30  43 NE7       30.21S
ORR            SUNNY     54  27  35 CALM      30.16R
COOK           SUNNY     54  32  43 E6        30.19R
WALKER         FAIR      57  31  37 E5        30.13S
$$
MNZ012-019>021-037-300100-
   Northeast Minnesota

CITY           SKY/WX    TMP DP  RH WIND       PRES   REMARKS
DULUTH         MOSUNNY   47  28  47 E12       30.18R
6HR MIN TEMP:  47; 6HR MAX TEMP:  52;

ELY            CLOUDY    48  30  49 NE6       30.20R
HIBBING        SUNNY     53  29  39 NE9       30.16R
EVELETH        SUNNY     52  30  43 NE10      30.18R
DULUTH HARBOR  SUNNY     41  36  81 NE6       30.21R
TWO HARBORS    SUNNY     48  34  57 E12       30.18R
SILVER BAY     SUNNY     45  28  53 NE8       30.19R
GRAND MARAIS     N/A     42  31  64 CALM      30.22R
G MARAIS ARPRT CLOUDY    43  27  52 CALM      30.20S
$$
MNZ029>031-032-039>041-046>048-054>057-064-300100-
   West Central Minnesota

CITY           SKY/WX    TMP DP  RH WIND       PRES   REMARKS
FERGUS FALLS   MOSUNNY   61  36  39 SW6       30.08S
WHEATON        PTSUNNY   59  39  47 SE5       30.12F
MORRIS         SUNNY     57  37  47 E5        30.10F
ALEXANDRIA     MOSUNNY   57  33  40 SE8       30.11F
ELBOW LAKE     CLOUDY    57  36  45 S6        30.11S
WADENA         MOSUNNY   57  34  41 SE10      30.11R
GLENWOOD       SUNNY     57  34  41 E10       30.12S
APPLETON       PTSUNNY   57  37  47 NE5       30.10S
BENSON         CLOUDY    57  34  41 CALM      30.10F
ORTONVILLE     MOSUNNY   55  37  50 E5        30.10F
MADISON        CLOUDY    55  39  54 E5        30.10S
WILLMAR        FAIR      57  37  47 E7        30.11F
$$
MNZ033>034-036-042>043-049>051-058-059-300100-
   Central Minnesota

CITY           SKY/WX    TMP DP  RH WIND       PRES   REMARKS
ST CLOUD       SUNNY     58  32  37 E6        30.11S
6HR MIN TEMP:  54; 6HR MAX TEMP:  59;

SAUK CENTRE    FAIR      57  33  40 NE6       30.11F
PAYNESVILLE    SUNNY     57  31  36 E5        30.11S
AITKIN         MOSUNNY   61  23  23 N7        30.11S
PINE RIVER     MOSUNNY   57  36  44 E7        30.15S
BRAINERD       PTSUNNY   59  30  33 NE10      30.13R
STAPLES        SUNNY     59  28  31 E6        30.12S
LONG PRAIRIE   FAIR      55  32  41 E6        30.12S
LITTLE FALLS   SUNNY     59  30  33 E6        30.12S
LITCHFIELD     SUNNY     57  36  44 E8        30.11S
BUFFALO        SUNNY     57  32  39 E3        30.12F
MAPLE LAKE     SUNNY     58  37  44 E5        30.12S
HUTCHINSON     SUNNY     55  41  59 NE3       30.12R
$$
MNZ037-044-045-052-053-300100-
   East Central Minnesota

CITY           SKY/WX    TMP DP  RH WIND       PRES   REMARKS
PRINCETON      SUNNY     61  32  33 E3        30.11F
MORA           SUNNY     55  30  38 E6        30.14S
CAMBRIDGE      SUNNY     63  39  42 E5        30.10S
RUSH CITY      PTSUNNY   58  32  37 NE8       30.12R
MOOSE LAKE     SUNNY     54  32  43 E8        30.14R
HINCKLEY       FAIR      57  32  38 NE9       30.14R
CLOQUET        SUNNY     48  27  43 E10       30.17R
MCGREGOR       SUNNY     55  32  41 E12       30.14R
$$
MNZ071>073-080-081-089-090-097-098-300100-
   Southwest Minnesota

CITY           SKY/WX    TMP DP  RH WIND       PRES   REMARKS
MONTEVIDEO     CLOUDY    55  41  58 E8        30.11F
GRANITE FALLS  CLOUDY    56  41  58 E8        30.11S
CANBY          CLOUDY    56  43  61 SE7       30.11S
MARSHALL       CLOUDY    52  40  63 E9        30.10S
REDWOOD FALLS  CLOUDY    54  37  52 E6        30.10S
OLIVIA         MOSUNNY   54  37  54 E6        30.09F
PIPESTONE      CLOUDY    52  39  62 E8        30.07F
WINDOM         CLOUDY    52  39  62 E9        30.08F
WORTHINGTON    CLOUDY    49  40  71 E13       30.07F
JACKSON        CLOUDY    50  39  66 E10       30.08F
TRACY          CLOUDY    52  42  69 NE7       30.09F
SLAYTON        CLOUDY    50  40  68 NE8       30.08F
$$
MNZ065>067-074>077-082>085-091>093-300100-
   South Central Minnesota

CITY           SKY/WX    TMP DP  RH WIND       PRES   REMARKS
MANKATO        CLOUDY    54  37  54 SE10      30.10S
NEW ULM        CLOUDY    54  36  50 E3        30.10S
ST JAMES       PTSUNNY   48  37  66 E7        30.10F
FAIRMONT       CLOUDY    52  37  58 E10       30.08F
GLENCOE        SUNNY     58  37  45 E5        30.10S
FARIBAULT      CLOUDY    54  39  58 E6        30.11S
OWATONNA       CLOUDY    52  39  62 E10       30.12R
WASECA         CLOUDY    52  41  66 SE9       30.11S
ALBERT LEA     CLOUDY    50  39  66 E7        30.10F
$$
MNZ078>079-086>088-094>096-300100-
   Southeast Minnesota

CITY           SKY/WX    TMP DP  RH WIND       PRES   REMARKS
ROCHESTER      CLOUDY    49  39  68 E10       30.12S
6HR MIN TEMP:  46; 6HR MAX TEMP:  52;

RED WING       SUNNY     55  37  50 S7        30.10F
STANTON        CLOUDY    56  40  56 SE3       30.10S
DODGE CENTER   CLOUDY    50  39  66 SE8       30.12R
WINONA         CLOUDY    52  39  62 CALM      30.14R
AUSTIN         CLOUDY    48  39  71 E6        30.10F
PRESTON        CLOUDY    48  37  66 E5        30.12F
$$
ABBREVIATIONS USED IN REMARKS
   TC - TEMPERATURES IN CELSIUS
  WCI - WIND CHILL INDEX
   HX - HEAT INDEX
  VSB - VISIBILITY
$$



USA.gov is the U.S. government's official web portal to all federal, state and local government web resources and services.